Mill Rose Farm Restricted Landing Area

Jump to: basic info | weather | runways | comments

Related pages: nearby airports | nearby navaids | notams | map

Basic information (top)

Codes: IL68
Location: lon 42.077202, lat -88.159798, elev 850 ft / 259 m msl
Status: small_airport

Weather (top)

Current conditions for Dupage Airport 11nm (20km) SSW (rec'd 2015/03/01 23:52Z):

KDPA 012352Z 26010KT 10SM CLR M06/M11 A3027 RMK AO2 SLP264 60000 T10611106 11044 21061 55001

Airport forecast for Dupage Airport 11nm (20km) SSW (rec'd 2015/03/01 00:39Z):

TAF KDPA 012336Z 0200/0224 26009KT P6SM SCT020 
     FM020200 30011G17KT P6SM SCT020 
     FM020600 31006KT P6SM SKC 
     FM022100 20003KT P6SM SCT120 BKN200

Runways (top)

N/S: 2,500 x 100 ft (762 x 30 m) — grass — lighted

Latest comments (top)

No comments yet for Mill Rose Farm Restricted Landing Area

More... (top)

See also NOTAMs and nearby airports and navaids, or visit the Mill Rose Farm Restricted Landing Area page at the main OurAirports website..